[[{"header":{"parameterUnit":"m.s-1","parameterCategory":1,"la1":30.2991,"la2":30.254,"lo1":-89.0895,"lo2":-89.0444,"dy":0.0017,"dx":0.0017,"nx":28,"ny":28,"refTime":"2025-03-06T09:00:00:Z","depth":0,"parameterNumber":2,"parameterNumberName":"U-component_of_WINDS"},"data":[0,0,0,0,0,0,0,0,0,0,0,0,0,0,0,0,0,0,0,0,0,0,0,0,0,0,0,0,0,0,0,0,0,0,0,0,0,0,0,0,0,0,0,0,0,0,0,0,0,0,0,0,0,0,0,0,0,0,1.5231,1.5232,0,1.5337,1.5338,1.5339,1.5365,1.5364,1.5363,1.5363,1.5474,1.5478,1.5481,0,0,0,0,0,0,0,0,0,0,0,0,0,1.5054,1.5057,1.523,1.5232,1.5233,1.5336,1.5338,1.5339,1.5365,1.5364,1.5363,1.5362,1.5473,1.5477,1.5482,0,0,0,0,0,0,0,0,0,0,0,0,0,1.5143,1.5058,1.523,1.5258,1.5262,1.5336,1.5338,1.534,1.5365,1.5364,1.5363,1.5362,1.5472,1.5477,1.5482,1.5537,0,0,1.5499,1.5501,0,0,0,0,0,0,0,0,1.5137,1.5149,1.5253,1.5256,1.5261,1.5336,1.5317,1.5406,1.5365,1.5326,1.5363,1.5361,1.5429,1.5438,1.5461,1.5543,1.5547,1.55,1.5503,1.5505,1.5507,0,0,0,0,0,0,0,1.5131,1.5145,1.5273,1.5254,1.5259,1.5267,1.5278,1.5334,1.5383,1.5329,1.5331,1.5343,1.5431,1.5455,1.5464,1.5549,1.5499,1.5504,1.5508,1.551,1.5684,1.5685,0,0,0,0,0,0,1.512,1.5139,1.5269,1.5276,1.5195,1.5271,1.5284,1.5313,1.5382,1.5391,1.5344,1.5344,1.5447,1.5457,1.5468,1.5538,1.5505,1.551,1.5513,1.5683,1.5684,1.5686,0,0,0,0,0,0,1.5116,1.5131,1.5265,1.5208,1.5226,1.5275,1.5308,1.5316,1.534,1.5393,1.5402,1.5359,1.5446,1.546,1.552,1.5542,1.5513,1.5518,1.5681,1.5683,1.5685,1.5678,0,0,0,0,0,0,1.5111,1.513,1.515,1.5208,1.5229,1.5314,1.5309,1.5319,1.5349,1.535,1.541,1.5419,1.5446,1.5512,1.5526,1.5549,1.5522,1.5679,1.5682,1.5684,1.5677,1.568,1.5682,0,0,0,0,0,1.5104,1.5144,1.5151,1.5166,1.5255,1.5316,1.5327,1.5357,1.535,1.5372,1.5407,1.5417,1.5537,1.5518,1.5533,1.5559,1.5678,1.5681,1.5684,1.5675,1.5679,1.5682,0,0,0,0,0,0,1.5087,1.5152,1.516,1.522,1.5262,1.532,1.5348,1.536,1.5406,1.5405,1.5441,1.5455,1.5513,1.5542,1.5519,1.5617,1.5608,1.5614,1.5596,1.56,1.5603,1.5595,1.5527,0,0,0,0,0,1.509,1.5133,1.5188,1.5235,1.5256,1.5298,1.5326,1.5345,1.5391,1.5409,1.5448,1.5493,1.5541,1.5572,1.5619,1.5681,1.5696,1.5707,1.5709,1.5711,1.5717,1.5754,1.576,1.5696,1.5696,1.5696,0,0,1.5097,1.5138,1.5163,1.5233,1.5268,1.5313,1.5313,1.536,1.5394,1.5417,1.5476,1.5506,1.5559,1.5621,1.565,1.5647,1.5738,1.5715,1.5716,1.5721,1.5757,1.5763,1.5769,1.5698,1.5698,1.5697,0,0,1.5133,1.5167,1.5211,1.5247,1.5299,1.5328,1.5338,1.5395,1.5416,1.5475,1.5494,1.5536,1.5617,1.5654,1.5684,1.5736,1.5748,1.575,1.5765,1.5801,1.5806,1.581,1.583,1.5837,1.5755,1.5755,1.5755,0,1.5135,1.5203,1.5233,1.5279,1.5311,1.5332,1.5378,1.5411,1.5477,1.5498,1.5494,1.5598,1.5635,1.5706,1.5719,1.5742,1.5756,1.5744,1.5802,1.5807,1.5812,1.5832,1.5839,1.5755,1.5755,1.5755,1.5755,0,1.5204,1.525,1.528,1.5342,1.5377,1.5422,1.5461,1.5493,1.5509,1.5539,1.5601,1.5646,1.5703,1.5722,1.5738,1.5796,1.5793,1.5795,1.5787,1.5818,1.5837,1.5844,1.5755,1.5755,1.5755,1.5755,0,0,1.5231,1.5311,1.5321,1.535,1.5411,1.5448,1.5496,1.5552,1.5579,1.5624,1.5666,1.5735,1.5738,1.5772,1.5793,1.5824,1.5864,1.5823,1.5825,1.583,1.5933,1.5932,1.594,1.5872,1.5874,1.5875,1.5929,0,1.5276,1.536,1.539,1.5461,1.5505,1.5527,1.5569,1.5612,1.5641,1.5684,1.5716,1.5765,1.5764,1.5785,1.5816,1.5852,1.5886,1.5849,1.5914,1.5915,1.59,1.5949,1.5948,1.5996,1.5936,1.5938,1.5938,0,1.5338,1.5384,1.5459,1.5516,1.5535,1.5572,1.5627,1.5667,1.5716,1.5736,1.5774,1.5793,1.5846,1.5834,1.5908,1.5883,1.5911,1.5933,1.5936,1.5944,1.5929,1.596,1.6012,1.602,1.595,1.5949,1.5948,0,1.5352,1.5433,1.5489,1.5513,1.558,1.5606,1.5635,1.5683,1.5715,1.5763,1.5785,1.5838,1.5868,1.591,1.5944,1.5932,1.6016,1.6006,1.6035,1.6034,1.6052,1.605,1.6111,1.6068,1.6068,1.6068,1.6068,0,1.5399,1.5445,1.5496,1.553,1.5583,1.5617,1.5668,1.5699,1.5742,1.5784,1.5807,1.5846,1.5888,1.5934,1.5961,1.6019,1.6032,1.605,1.6057,1.6049,1.6047,1.6069,1.6066,1.607,1.6069,1.6069,1.6069,0,1.5424,1.546,1.5523,1.5581,1.5597,1.5633,1.5684,1.5719,1.5749,1.5802,1.5817,1.5865,1.5919,1.5957,1.6028,1.6046,1.611,1.6116,1.6093,1.6096,1.6123,1.612,1.62,1.6213,1.6161,1.6161,1.6162,0,1.5452,1.5487,1.555,1.5579,1.5608,1.5655,1.5688,1.5724,1.5757,1.5817,1.5846,1.5902,1.5948,1.6035,1.6077,1.6132,1.614,1.6164,1.6148,1.6139,1.6142,1.614,1.6144,1.6167,1.6167,1.6168,1.6168,0,1.5498,1.5514,1.556,1.5613,1.5651,1.5695,1.5739,1.5762,1.5805,1.5842,1.5898,1.5934,1.6006,1.6063,1.6121,1.6153,1.6169,1.6172,1.6182,1.6174,1.616,1.617,1.61,1.6171,1.617,1.617,1.617,1.617,1.5526,1.5559,1.5609,1.566,1.5696,1.5737,1.5773,1.5808,1.5855,1.5916,1.5934,1.5993,1.6044,1.6124,1.6157,1.6204,1.6203,1.6216,1.622,1.6223,1.6224,1.6152,1.6215,1.6215,1.6215,1.6215,1.6215,0,1.5575,1.5608,1.5654,1.5715,1.5755,1.5765,1.5814,1.5848,1.5899,1.5944,1.599,1.6055,1.611,1.6157,1.6214,1.6243,1.6252,1.6257,1.6256,1.6263,1.6221,1.6207,1.6249,1.6249,1.6249,1.6249,1.6249,1.6249,1.5605,1.5662,1.5684,1.5761,1.5794,1.585,1.5878,1.5917,1.5953,1.6025,1.607,1.61,1.6146,1.6207,1.6259,1.6271,1.6292,1.6296,1.631,1.627,1.6266,1.6262,1.625,1.63,1.63,1.6349,1.6349,1.6349]},{"header":{"parameterUnit":"m.s-1","parameterCategory":1,"la1":30.2991,"la2":30.254,"lo1":-89.0895,"lo2":-89.0444,"dy":0.0017,"dx":0.0017,"nx":28,"ny":28,"refTime":"2025-03-06T09:00:00:Z","depth":0,"parameterNumber":3,"parameterNumberName":"V-component_of_WINDS"},"data":[0,0,0,0,0,0,0,0,0,0,0,0,0,0,0,0,0,0,0,0,0,0,0,0,0,0,0,0,0,0,0,0,0,0,0,0,0,0,0,0,0,0,0,0,0,0,0,0,0,0,0,0,0,0,0,0,0,0,-0.5605,-0.5606,0,-0.5672,-0.5673,-0.5674,-0.5776,-0.5777,-0.5779,-0.5781,-0.5849,-0.5849,-0.5849,0,0,0,0,0,0,0,0,0,0,0,0,0,-0.5566,-0.5566,-0.5605,-0.5606,-0.5607,-0.5672,-0.5673,-0.5674,-0.5775,-0.5778,-0.578,-0.5782,-0.5849,-0.5849,-0.5849,0,0,0,0,0,0,0,0,0,0,0,0,0,-0.5603,-0.5566,-0.5605,-0.5665,-0.5671,-0.5672,-0.5673,-0.5674,-0.5775,-0.5778,-0.578,-0.5783,-0.5849,-0.5849,-0.5849,-0.5796,0,0,-0.585,-0.585,0,0,0,0,0,0,0,0,-0.56,-0.5604,-0.5655,-0.5661,-0.5668,-0.5718,-0.5684,-0.5715,-0.5774,-0.5735,-0.5781,-0.5784,-0.5803,-0.5807,-0.5814,-0.5799,-0.5802,-0.585,-0.585,-0.585,-0.585,0,0,0,0,0,0,0,-0.5598,-0.5602,-0.5632,-0.5656,-0.5664,-0.5689,-0.5698,-0.5691,-0.5753,-0.5739,-0.5747,-0.5753,-0.5807,-0.5813,-0.5816,-0.5803,-0.585,-0.585,-0.585,-0.585,-0.5753,-0.5751,0,0,0,0,0,0,-0.5586,-0.5599,-0.563,-0.5634,-0.564,-0.5688,-0.5697,-0.5699,-0.5754,-0.5764,-0.5751,-0.5758,-0.5812,-0.5816,-0.5819,-0.5764,-0.585,-0.585,-0.585,-0.5756,-0.5753,-0.575,0,0,0,0,0,0,-0.5585,-0.5588,-0.5627,-0.5618,-0.5625,-0.5686,-0.5687,-0.5699,-0.5706,-0.5763,-0.5774,-0.5746,-0.5814,-0.5819,-0.5802,-0.5767,-0.585,-0.585,-0.5759,-0.5755,-0.5751,-0.565,0,0,0,0,0,0,-0.5583,-0.5587,-0.5567,-0.5617,-0.5625,-0.5608,-0.5685,-0.5699,-0.5706,-0.5716,-0.5761,-0.5771,-0.5817,-0.5801,-0.5802,-0.5769,-0.585,-0.5763,-0.5757,-0.5753,-0.5657,-0.5644,-0.5632,0,0,0,0,0,-0.5582,-0.5534,-0.5565,-0.5568,-0.5601,-0.5606,-0.561,-0.5664,-0.5703,-0.5684,-0.5721,-0.577,-0.5771,-0.5799,-0.5801,-0.5767,-0.5765,-0.5759,-0.5753,-0.5663,-0.5646,-0.5632,0,0,0,0,0,0,-0.5477,-0.5542,-0.5577,-0.5544,-0.5569,-0.5623,-0.56,-0.5644,-0.5657,-0.5666,-0.5732,-0.5741,-0.5717,-0.574,-0.577,-0.5721,-0.5776,-0.577,-0.5707,-0.5691,-0.5679,-0.5674,-0.5851,0,0,0,0,0,-0.545,-0.5448,-0.5505,-0.5471,-0.5482,-0.5538,-0.5542,-0.5582,-0.561,-0.562,-0.5656,-0.5681,-0.5688,-0.5691,-0.57,-0.5661,-0.5674,-0.5639,-0.5627,-0.5616,-0.561,-0.5596,-0.5582,-0.573,-0.573,-0.573,0,0,-0.5394,-0.543,-0.5424,-0.5451,-0.5475,-0.5472,-0.5546,-0.5539,-0.5539,-0.5619,-0.5607,-0.5634,-0.5667,-0.564,-0.563,-0.5659,-0.5572,-0.5608,-0.5599,-0.56,-0.5588,-0.5574,-0.5561,-0.5726,-0.5727,-0.5727,0,0,-0.5292,-0.5318,-0.5294,-0.5317,-0.5353,-0.5391,-0.5386,-0.5434,-0.5456,-0.5444,-0.5506,-0.5506,-0.5515,-0.5537,-0.5549,-0.546,-0.5506,-0.5461,-0.5394,-0.5379,-0.5368,-0.5358,-0.5328,-0.5317,-0.5455,-0.5454,-0.5454,0,-0.5218,-0.5217,-0.5276,-0.5267,-0.5278,-0.5352,-0.533,-0.5349,-0.5385,-0.5392,-0.5424,-0.544,-0.5466,-0.5448,-0.5426,-0.5433,-0.543,-0.5456,-0.5364,-0.5355,-0.5347,-0.532,-0.5308,-0.5449,-0.5449,-0.545,-0.5451,0,-0.5126,-0.5124,-0.5101,-0.5136,-0.5144,-0.5128,-0.5186,-0.5188,-0.5228,-0.5263,-0.5253,-0.5288,-0.5308,-0.5306,-0.5343,-0.5294,-0.5311,-0.5352,-0.5409,-0.5326,-0.5302,-0.5292,-0.5441,-0.5443,-0.5444,-0.5446,0,0,-0.4958,-0.5029,-0.5019,-0.5038,-0.5084,-0.5084,-0.5073,-0.5093,-0.5094,-0.5117,-0.5111,-0.5119,-0.5159,-0.5173,-0.5214,-0.52,-0.5131,-0.5245,-0.5247,-0.5224,-0.5082,-0.5052,-0.5038,-0.5162,-0.5161,-0.5159,-0.508,0,-0.4866,-0.4851,-0.4905,-0.4876,-0.4877,-0.495,-0.494,-0.4968,-0.5002,-0.5009,-0.5046,-0.5052,-0.5103,-0.5113,-0.5102,-0.5142,-0.5104,-0.5148,-0.5159,-0.5158,-0.515,-0.5025,-0.4992,-0.4916,-0.5071,-0.5069,-0.5068,0,-0.4757,-0.4777,-0.4748,-0.48,-0.4802,-0.4792,-0.4817,-0.4822,-0.4856,-0.4882,-0.49,-0.4949,-0.4943,-0.4996,-0.4991,-0.502,-0.5028,-0.5048,-0.5046,-0.505,-0.5109,-0.5028,-0.4893,-0.4882,-0.5053,-0.5054,-0.5056,0,-0.464,-0.4659,-0.4646,-0.4659,-0.4718,-0.4711,-0.4735,-0.4772,-0.4782,-0.4804,-0.4812,-0.4831,-0.4843,-0.4858,-0.4912,-0.4945,-0.4901,-0.4958,-0.4924,-0.4923,-0.4912,-0.4912,-0.4778,-0.4914,-0.4914,-0.4914,-0.4914,0,-0.4533,-0.4513,-0.4595,-0.4586,-0.4568,-0.4632,-0.4611,-0.4643,-0.4676,-0.4677,-0.474,-0.4739,-0.4809,-0.4817,-0.4859,-0.485,-0.4853,-0.4876,-0.4887,-0.4871,-0.4868,-0.4878,-0.4885,-0.4911,-0.4912,-0.4912,-0.4913,0,-0.44,-0.4453,-0.4444,-0.4502,-0.4516,-0.45,-0.455,-0.4546,-0.4585,-0.4585,-0.4588,-0.465,-0.4662,-0.4717,-0.4742,-0.4771,-0.4748,-0.477,-0.4737,-0.4745,-0.4708,-0.4712,-0.4577,-0.4564,-0.4705,-0.4704,-0.4703,0,-0.4328,-0.4315,-0.4373,-0.4378,-0.44,-0.4407,-0.4419,-0.4482,-0.4491,-0.4532,-0.4523,-0.4541,-0.4559,-0.4576,-0.4623,-0.4643,-0.4667,-0.4619,-0.4671,-0.4656,-0.467,-0.467,-0.4671,-0.4607,-0.4606,-0.4604,-0.4603,0,-0.4197,-0.4225,-0.4239,-0.4263,-0.4275,-0.4297,-0.4322,-0.4323,-0.4394,-0.4401,-0.4416,-0.4429,-0.4457,-0.4475,-0.4504,-0.453,-0.4579,-0.4586,-0.458,-0.4564,-0.4546,-0.4558,-0.4708,-0.4589,-0.459,-0.4591,-0.4592,-0.4593,-0.4094,-0.4088,-0.4128,-0.4143,-0.4169,-0.4192,-0.4192,-0.4233,-0.4246,-0.4274,-0.431,-0.432,-0.4359,-0.4404,-0.4427,-0.4437,-0.4464,-0.4453,-0.4451,-0.4448,-0.4441,-0.4543,-0.4442,-0.4442,-0.4443,-0.4443,-0.4443,0,-0.3969,-0.3999,-0.4012,-0.4047,-0.4059,-0.4105,-0.4136,-0.4143,-0.4152,-0.4184,-0.4201,-0.422,-0.4238,-0.4288,-0.4312,-0.4311,-0.4334,-0.4315,-0.4317,-0.4323,-0.4414,-0.4419,-0.4296,-0.4296,-0.4296,-0.4296,-0.4296,-0.4296,-0.3905,-0.3897,-0.3931,-0.3938,-0.3969,-0.398,-0.3995,-0.4017,-0.4044,-0.4062,-0.4078,-0.4111,-0.4151,-0.4179,-0.4199,-0.4214,-0.4221,-0.4195,-0.4216,-0.4301,-0.4316,-0.4329,-0.4334,-0.4195,-0.4195,-0.4124,-0.4124,-0.4123]}]]